Location: Azul
(36.7830°S, 59.8500°W)
Time: 16:39:49
(UTC-03:00)

Hubble Space Telescope - Pass Details

Date: 08 December 2023
Orbit: 516 x 519 km, 28.5° (Epoch: 27 February)

Event Time Altitude Azimuth Distance (km) Brightness Sun altitude
Exits shadow 04:39:58 13° 321° (NW) 1,596 2.5 -9.7°
Maximum altitude 04:41:20 15° 343° (NNW) 1,494 2.6 -9.5°
Drops below altitude 10° 04:43:36 10° 17° (NNE) 1,760 3.2 -9.2°
Sets 04:46:41 0° 41° (NE) 2,644 4.4 -8.7°
